This demonstration page uses our WeatherBlox Daily Observations layout. Learn more.

Left ArrowRight Arrow

34.02893, -84.19858

Hourly Observations for February 15, 2020

Temp ( °F °C ) Dew Point ( °F °C ) Humidity (%) Winds ( mph kmh ) Pressure ( in mb ) Visibility ( mi km ) Precip ( " mm )
12:53 am 00:53 Clear 32 0 19 -7.2 59 59 Calm 30.42 1030 10 16 0.00 0.00
1:53 am 01:53 Clear 32 0 20 -6.7 61 61 Calm 30.43 1031 10 16 0.00 0.00
2:53 am 02:53 Clear 30 -1.1 20 -6.7 66 66 NNE 5 7 30.45 1031 10 16 0.00 0.00
3:53 am 03:53 Clear 29 -1.7 21 -6.1 72 72 N 3 6 30.44 1031 10 16 0.00 0.00
4:53 am 04:53 Clear 29 -1.7 21 -6.1 72 72 N 5 7 30.45 1031 10 16 0.00 0.00
5:53 am 05:53 Clear 30 -1.1 22 -5.6 72 72 NNE 5 7 30.47 1032 10 16 0.00 0.00
6:53 am 06:53 Clear 32 0 19 -7.2 59 59 ENE 8 13 30.48 1032 10 16 0.00 0.00
7:53 am 07:53 Sunny 33 0.6 18 -7.8 54 54 VRB 5 7 30.49 1033 10 16 0.00 0.00
8:53 am 08:53 Sunny 35 1.7 18 -7.8 50 50 E 8 13 30.50 1033 10 16 0.00 0.00
9:53 am 09:53 Sunny 39 3.9 19 -7.2 45 45 ENE 7 11 30.53 1034 10 16 0.00 0.00
10:53 am 10:53 Sunny 41 5 21 -6.1 45 45 VRB 5 7 30.52 1034 10 16 0.00 0.00
11:53 am 11:53 Sunny 45 7.2 24 -4.4 44 44 VRB 5 7 30.50 1033 10 16 0.00 0.00
12:53 pm 12:53 Sunny 48 8.9 25 -3.9 41 41 E 7 11 30.45 1031 10 16 0.00 0.00
1:53 pm 13:53 Sunny 51 10.6 27 -2.8 39 39 VRB 6 9 30.41 1030 10 16 0.00 0.00
2:53 pm 14:53 Sunny 52 11.1 28 -2.2 40 40 SE 8 13 30.39 1029 10 16 0.00 0.00
3:53 pm 15:53 Sunny 52 11.1 28 -2.2 40 40 VRB 3 6 30.38 1029 10 16 0.00 0.00
4:53 pm 16:53 Sunny 52 11.1 28 -2.2 40 40 SE 7 11 30.36 1028 10 16 0.00 0.00
5:53 pm 17:53 Sunny 51 10.6 29 -1.7 43 43 SSE 3 6 30.35 1028 10 16 0.00 0.00
6:53 pm 18:53 Clear 49 9.4 29 -1.7 46 46 Calm 30.34 1027 10 16 0.00 0.00
7:53 pm 19:53 Clear 47 8.3 30 -1.1 52 52 E 3 6 30.35 1028 10 16 0.00 0.00
8:53 pm 20:53 Clear 45 7.2 31 -0.6 58 58 E 3 6 30.35 1028 10 16 0.00 0.00
9:53 pm 21:53 Clear 44 6.7 30 -1.1 58 58 E 3 6 30.35 1028 10 16 0.00 0.00
10:53 pm 22:53 Clear 43 6.1 31 -0.6 63 63 E 3 6 30.35 1028 10 16 0.00 0.00
11:53 pm 23:53 Partly Cloudy 43 6.1 30 -1.1 60 60 VRB 5 7 30.31 1026 10 16 0.00 0.00

Powered by AerisWeather